When you browse on this site, cookies collect data to enhance your experience and personalize the content and advertising you see.
Visit our Privacy Policy to learn more. By continuing to use the site, you agree to this use of cookies and data.
  • In Austria
  • List of Countries
  • For 7 days
  • Water Temperature
  • Weather Map
  • News
  • Weather Widgets
  • user-avatar
    Login

    Hourly Weather Rawson

    Today, 8 December, Sunday

    Time Temperature Precipitation Wind Pressure Humidity
    00:00 +18°C° 0 mm 4 mps 754 mmHg 44%
    01:00 +17°C° 0 mm 5 mps 754 mmHg 43%
    02:00 +19°C° 0 mm 5 mps 754 mmHg 42%
    03:00 +17°C° 0 mm 6 mps 754 mmHg 41%
    04:00 +17°C° 0 mm 6 mps 754 mmHg 41%
    05:00 +17°C° 0 mm 7 mps 755 mmHg 41%
    06:00 +17°C° 0 mm 8 mps 755 mmHg 46%
    07:00 +17°C° 0 mm 9 mps 755 mmHg 51%
    08:00 +17°C° 0 mm 10 mps 756 mmHg 56%
    09:00 +18°C° 0 mm 9 mps 756 mmHg 53%
    10:00 +18°C° 0 mm 7 mps 756 mmHg 50%
    11:00 +19°C° 0 mm 5 mps 757 mmHg 48%
    12:00 +19°C° 0 mm 5 mps 757 mmHg 46%
    13:00 +20°C° 0 mm 5 mps 756 mmHg 44%
    14:00 +20°C° 0 mm 4 mps 756 mmHg 42%
    15:00 +21°C° 0 mm 6 mps 755 mmHg 41%
    16:00 +21°C° 0 mm 7 mps 755 mmHg 39%
    17:00 +22°C° 0 mm 8 mps 754 mmHg 37%
    18:00 +21°C° 0 mm 8 mps 754 mmHg 38%
    19:00 +21°C° 0 mm 8 mps 753 mmHg 38%
    20:00 +19°C° 0 mm 9 mps 753 mmHg 39%
    21:00 +18°C° 0 mm 9 mps 753 mmHg 42%
    22:00 +18°C° 0 mm 9 mps 753 mmHg 44%
    23:00 +17°C° 0 mm 10 mps 753 mmHg 47%

    Tomorrow, 9 December, Monday

    Time Temperature Precipitation Wind Pressure Humidity
    00:00 +17°C° 0 mm 9 mps 753 mmHg 46%
    01:00 +18°C° 0 mm 7 mps 753 mmHg 45%
    02:00 +19°C° 0 mm 6 mps 752 mmHg 44%
    03:00 +19°C° 0 mm 6 mps 752 mmHg 42%
    04:00 +20°C° 0 mm 7 mps 752 mmHg 41%
    05:00 +20°C° 0 mm 7 mps 752 mmHg 40%
    06:00 +22°C° 0 mm 7 mps 752 mmHg 36%
    07:00 +23°C° 0 mm 7 mps 752 mmHg 33%
    08:00 +26°C° 0 mm 7 mps 752 mmHg 30%
    09:00 +27°C° 0 mm 7 mps 752 mmHg 27%
    10:00 +28°C° 0 mm 6 mps 752 mmHg 23%
    11:00 +29°C° 0 mm 6 mps 752 mmHg 20%
    12:00 +30°C° 0 mm 6 mps 751 mmHg 18%
    13:00 +32°C° 0 mm 7 mps 751 mmHg 17%
    14:00 +34°C° 0 mm 7 mps 750 mmHg 16%
    15:00 +33°C° 0 mm 7 mps 750 mmHg 17%
    16:00 +33°C° 0 mm 7 mps 750 mmHg 18%
    17:00 +32°C° 0 mm 7 mps 750 mmHg 19%
    18:00 +29°C° 0 mm 6 mps 750 mmHg 24%
    19:00 +27°C° 0 mm 5 mps 750 mmHg 29%
    20:00 +25°C° 0 mm 4 mps 751 mmHg 34%
    21:00 +23°C° 0 mm 4 mps 751 mmHg 34%
    22:00 +23°C° 0 mm 4 mps 752 mmHg 34%
    23:00 +23°C° 0 mm 4 mps 752 mmHg 34%

    Day after tomorrow, 10 December, Tuesday

    Time Temperature Precipitation Wind Pressure Humidity
    00:00 +23°C° 0 mm 5 mps 752 mmHg 35%
    01:00 +22°C° 0 mm 6 mps 752 mmHg 37%
    02:00 +21°C° 0 mm 7 mps 752 mmHg 38%
    03:00 +21°C° 0 mm 7 mps 753 mmHg 38%
    04:00 +20°C° 0 mm 7 mps 753 mmHg 39%
    05:00 +20°C° 0 mm 7 mps 753 mmHg 39%
    06:00 +21°C° 0 mm 7 mps 753 mmHg 37%
    07:00 +22°C° 0 mm 8 mps 753 mmHg 35%
    08:00 +24°C° 0 mm 9 mps 753 mmHg 32%
    09:00 +26°C° 0 mm 8 mps 753 mmHg 30%
    10:00 +27°C° 0 mm 8 mps 753 mmHg 28%
    11:00 +28°C° 0 mm 7 mps 752 mmHg 25%
    12:00 +28°C° 0 mm 7 mps 752 mmHg 27%
    13:00 +27°C° 0 mm 6 mps 752 mmHg 29%
    14:00 +27°C° 0 mm 6 mps 751 mmHg 31%
    15:00 +26°C° 0 mm 5 mps 751 mmHg 33%
    16:00 +26°C° 0 mm 5 mps 751 mmHg 35%
    17:00 +25°C° 0 mm 4 mps 750 mmHg 37%
    18:00 +23°C° 0 mm 4 mps 750 mmHg 40%
    19:00 +22°C° 0 mm 4 mps 750 mmHg 42%
    20:00 +21°C° 0 mm 4 mps 751 mmHg 44%
    21:00 +22°C° 0 mm 4 mps 751 mmHg 44%
    22:00 +22°C° 0 mm 4 mps 751 mmHg 43%
    23:00 +22°C° 0 mm 4 mps 751 mmHg 43%

    11 December, Wednesday

    Time Temperature Precipitation Wind Pressure Humidity
    00:00 +21°C° 0.1 mm 3 mps 751 mmHg 48%
    01:00 +20°C° 0.1 mm 3 mps 751 mmHg 54%
    02:00 +19°C° 0.1 mm 2 mps 750 mmHg 59%
    03:00 +19°C° 0 mm 4 mps 750 mmHg 53%
    04:00 +19°C° 0 mm 6 mps 750 mmHg 47%
    05:00 +18°C° 0 mm 8 mps 750 mmHg 40%
    06:00 +19°C° 0 mm 9 mps 750 mmHg 36%
    07:00 +21°C° 0 mm 11 mps 750 mmHg 33%
    08:00 +22°C° 0 mm 12 mps 750 mmHg 29%
    09:00 +22°C° 0 mm 12 mps 749 mmHg 26%
    10:00 +23°C° 0 mm 11 mps 749 mmHg 23%
    11:00 +23°C° 0 mm 11 mps 749 mmHg 21%
    12:00 +24°C° 0 mm 11 mps 749 mmHg 19%
    13:00 +26°C° 0 mm 11 mps 748 mmHg 18%
    14:00 +26°C° 0 mm 10 mps 748 mmHg 17%
    15:00 +23°C° 0.1 mm 11 mps 749 mmHg 27%
    16:00 +21°C° 0.1 mm 12 mps 750 mmHg 37%
    17:00 +18°C° 0.1 mm 13 mps 750 mmHg 47%
    18:00 +15°C° 0 mm 12 mps 752 mmHg 53%
    19:00 +13°C° 0 mm 11 mps 753 mmHg 59%
    20:00 +11°C° 0 mm 11 mps 754 mmHg 64%
    21:00 +11°C° 0 mm 10 mps 755 mmHg 62%
    22:00 +11°C° 0 mm 10 mps 756 mmHg 60%
    23:00 +11°C° 0 mm 9 mps 756 mmHg 58%

    12 December, Thursday

    Time Temperature Precipitation Wind Pressure Humidity
    00:00 +11°C° 0 mm 9 mps 757 mmHg 56%
    01:00 +11°C° 0 mm 9 mps 757 mmHg 53%
    02:00 +11°C° 0 mm 9 mps 758 mmHg 51%
    03:00 +10°C° 0 mm 9 mps 758 mmHg 52%
    04:00 +10°C° 0 mm 8 mps 759 mmHg 54%
    05:00 +9°C° 0 mm 7 mps 759 mmHg 56%
    06:00 +11°C° 0 mm 7 mps 760 mmHg 51%
    07:00 +12°C° 0 mm 7 mps 760 mmHg 47%
    08:00 +14°C° 0 mm 7 mps 761 mmHg 43%
    09:00 +15°C° 0 mm 6 mps 761 mmHg 40%
    10:00 +16°C° 0 mm 6 mps 761 mmHg 38%
    11:00 +16°C° 0 mm 6 mps 761 mmHg 36%
    12:00 +15°C° 0.3 mm 5 mps 761 mmHg 44%
    13:00 +14°C° 0.3 mm 5 mps 760 mmHg 52%
    14:00 +13°C° 0.3 mm 5 mps 760 mmHg 60%
    15:00 +13°C° 0.2 mm 5 mps 760 mmHg 57%
    16:00 +13°C° 0.2 mm 4 mps 760 mmHg 53%
    17:00 +14°C° 0.2 mm 4 mps 760 mmHg 50%
    18:00 +13°C° 0 mm 4 mps 760 mmHg 52%
    19:00 +12°C° 0 mm 4 mps 760 mmHg 53%
    20:00 +12°C° 0 mm 4 mps 761 mmHg 55%
    21:00 +11°C° 0 mm 3 mps 761 mmHg 56%
    22:00 +11°C° 0 mm 3 mps 761 mmHg 58%
    23:00 +12°C° 0 mm 2 mps 761 mmHg 59%

    13 December, Friday

    Time Temperature Precipitation Wind Pressure Humidity
    00:00 +11°C° 0 mm 3 mps 760 mmHg 60%
    01:00 +10°C° 0 mm 3 mps 760 mmHg 61%
    02:00 +10°C° 0 mm 3 mps 760 mmHg 61%
    03:00 +10°C° 0 mm 3 mps 760 mmHg 62%
    04:00 +10°C° 0 mm 4 mps 759 mmHg 63%
    05:00 +10°C° 0 mm 4 mps 759 mmHg 63%
    06:00 +12°C° 0 mm 5 mps 759 mmHg 60%
    07:00 +14°C° 0 mm 6 mps 759 mmHg 58%
    08:00 +15°C° 0 mm 7 mps 758 mmHg 55%
    09:00 +17°C° 0 mm 7 mps 758 mmHg 45%
    10:00 +20°C° 0 mm 6 mps 757 mmHg 35%
    11:00 +22°C° 0 mm 6 mps 757 mmHg 25%
    12:00 +23°C° 0 mm 6 mps 756 mmHg 23%
    13:00 +25°C° 0 mm 5 mps 755 mmHg 22%
    14:00 +26°C° 0 mm 5 mps 755 mmHg 20%
    15:00 +26°C° 0 mm 5 mps 754 mmHg 19%
    16:00 +27°C° 0 mm 4 mps 753 mmHg 19%
    17:00 +27°C° 0 mm 4 mps 752 mmHg 19%
    18:00 +25°C° 0 mm 5 mps 752 mmHg 24%
    19:00 +23°C° 0 mm 6 mps 752 mmHg 29%
    20:00 +21°C° 0 mm 7 mps 751 mmHg 34%
    21:00 +21°C° 0 mm 7 mps 751 mmHg 38%
    22:00 +20°C° 0 mm 6 mps 751 mmHg 43%
    23:00 +19°C° 0 mm 5 mps 751 mmHg 47%
    Show more